sat.trackr.live / text

‹ back to catalog

STARLINK-11201 [DTC]

NORAD 60113 · 2024-118A

PAYLOAD ACTIVE UNKNOWN

§ Identity

Operator
Country
US
Launch date
2024-06-24
Launch site
AFWTR
Launch vehicle
Mass (kg)
RCS (m²)

Purposes: comms

External: N2YO · Heavens-Above · Gunter

§ Orbital elements

Epoch: 2026-05-25T04:27:43.430112Z

Period
91.74 min
Inclination
53.1589°
Eccentricity
0.0001141
Mean motion
15.69715759 rev/d
Perigee alt
358.9 km
Apogee alt
360.5 km
Semi-major
6,737.8 km
B*
5.1229e-5
RAAN
204.4779°
Arg perigee
67.2691°
Mean anomaly
292.8447°
Rev number
11,000

§ Raw data

STARLINK-11201 [DTC]1 60113U 24118A   26145.18591933  .00005623  00000+0  51229-4 0  99922 60113  53.1589 204.4779 0001141  67.2691 292.8447 15.69715759110008

JSON: /api/v1/satellites/60113 · /tle

For live sub-satellite position, see the globe view (requires WebGL).

§ Visibility from observer

Set your observer location to see the next 7 days of passes ≥ 10°. The values pass through the URL so the page stays shareable.

No JS? Fill the form by hand. The geolocation button needs JavaScript.